Montoursville, PA

6:52 PM EST on February 22, 2017 (GMT -0500)
Williamsport Rgnl

Weather History for KIPT - March, 2015

Change the Weather History Date:

Saturday, March 7, 2015

  Actual Average Record
Temperature  
Mean Temperature 21 °F 35 °F  
Max Temperature 37 °F 44 °F 71 °F (1987)
Min Temperature 5 °F 26 °F 1 °F (2003)
Degree Days  
Heating Degree Days 44 30  
Month to date heating degree days 297 217  
Since 1 July heating degree days 4934 4684  
Cooling Degree Days 0 0  
Month to date cooling degree days 0 0  
Year to date cooling degree days 0 0  
Moisture  
Dew Point 13 °F    
Average Humidity 62    
Maximum Humidity 83    
Minimum Humidity 41    
Precipitation  
Precipitation T in 0.09 in 1.42 in (1932)
Month to date precipitation 0.65 0.59  
Year to date precipitation 3.44 5.63  
Snow  
Snow T in 0.30 in 10.00 in (1967)
Month to date snowfall 3.3 2.1  
Since 1 July snowfall 36.3 30.1  
Snow Depth 5.00 in    
Sea Level Pressure  
Sea Level Pressure 30.18 in    
Wind  
Wind Speed 3 mph (ESE)    
Max Wind Speed 12 mph    
Max Gust Speed 16 mph    
Visibility 10 miles    
Events Snow    
T = Trace of Precipitation, MM = Missing Value Source: NWS Daily Summary

Daily Weather History Graph

Daily Weather History Graph

Search for Another Location

Airport or City:

Trip Planner

Search our weather history database for the weather conditions in past years. The results will help you decide how hot, cold, wet, or windy it might be!

Date:

Astronomy

Mar. 07, 2015 Rise Set
Actual Time 6:32 AM EST 6:05 PM EST
Civil Twilight 6:05 AM EST 6:32 PM EST
Nautical Twilight 5:33 AM EST 7:04 PM EST
Astronomical Twilight 5:01 AM EST 7:36 PM EST
Moon 8:06 PM EST (3/7) 7:18 AM EST (3/7)
Length of Visible Light 12h 27m
Length of Day
11h 32m
Waning Gibbous, 97% of the Moon is Illuminated
Mar 7
Waning Gibbous
Mar 13
Last Quarter
Mar 20
New
Mar 27
First Quarter
Apr 4
Full

Hourly Weather History & Observations

Time (EST) Temp. Windchill Dew Point Humidity Pressure Visibility Wind Dir Wind Speed Gust Speed Precip Events Conditions
12:54 AM 12.9 °F 6.9 °F 3.9 °F 67% 30.35 in 10.0 mi North 3.5 mph - N/A   Clear
1:54 AM 8.1 °F - 1.0 °F 73% 30.35 in 10.0 mi Calm Calm - N/A   Clear
2:54 AM 8.1 °F 1.4 °F 1.9 °F 76% 30.33 in 10.0 mi Variable 3.5 mph - N/A   Clear
3:54 AM 7.0 °F -4.5 °F 1.0 °F 77% 30.31 in 10.0 mi ESE 6.9 mph - N/A   Mostly Cloudy
4:54 AM 7.0 °F -1.7 °F 1.0 °F 77% 30.31 in 10.0 mi ESE 4.6 mph - N/A   Scattered Clouds
5:54 AM 6.1 °F -0.9 °F -0.0 °F 76% 30.30 in 10.0 mi East 3.5 mph - N/A   Clear
6:54 AM 5.0 °F -4.1 °F -0.0 °F 80% 30.29 in 10.0 mi ESE 4.6 mph - N/A   Clear
7:54 AM 7.0 °F 0.1 °F 1.0 °F 77% 30.28 in 10.0 mi SE 3.5 mph - N/A   Clear
8:54 AM 12.9 °F 5.2 °F 3.9 °F 67% 30.27 in 10.0 mi SE 4.6 mph - N/A   Clear
9:54 AM 19.0 °F 12.3 °F 8.1 °F 62% 30.25 in 10.0 mi SE 4.6 mph - N/A   Mostly Cloudy
10:54 AM 26.1 °F - 10.9 °F 53% 30.21 in 10.0 mi Calm Calm - N/A   Mostly Cloudy
11:54 AM 28.0 °F 21.7 °F 10.9 °F 49% 30.19 in 10.0 mi ESE 5.8 mph - 0.00 in   Overcast
12:54 PM 30.9 °F 26.2 °F 12.0 °F 46% 30.13 in 10.0 mi ESE 4.6 mph - 0.00 in   Overcast
1:54 PM 34.0 °F 31.0 °F 12.9 °F 42% 30.08 in 10.0 mi ENE 3.5 mph - N/A   Overcast
2:54 PM 36.0 °F 31.1 °F 17.1 °F 46% 30.06 in 10.0 mi SSW 5.8 mph - N/A   Overcast
3:54 PM 35.1 °F 30.1 °F 25.0 °F 67% 30.05 in 10.0 mi SSW 5.8 mph - 0.00 in   Mostly Cloudy
4:54 PM 36.0 °F - 26.1 °F 67% 30.05 in 10.0 mi Calm Calm - N/A   Overcast
5:54 PM 37.0 °F - 26.1 °F 65% 30.04 in 10.0 mi Calm Calm - N/A   Overcast
6:54 PM 36.0 °F - 27.0 °F 70% 30.05 in 10.0 mi Calm Calm - N/A   Mostly Cloudy
7:54 PM 34.0 °F 29.8 °F 26.1 °F 73% 30.05 in 10.0 mi ESE 4.6 mph - N/A   Overcast
8:54 PM 33.1 °F 28.7 °F 27.0 °F 78% 30.06 in 10.0 mi ESE 4.6 mph - 0.00 in Snow Light Snow
9:54 PM 32.0 °F - 27.0 °F 82% 30.06 in 10.0 mi Calm Calm - 0.00 in   Overcast
10:54 PM 32.0 °F - 27.0 °F 82% 30.06 in 10.0 mi Calm Calm - N/A   Overcast
11:54 PM 30.9 °F - 27.0 °F 85% 30.04 in 8.0 mi Calm Calm - N/A   Overcast